Change the Weather History Date:

Tuesday, January 14, 2014

  Actual Average Record
Temperature  
Mean Temperature 34 °F -  
Max Temperature 48 °F 46 °F 63 °F (1980)
Min Temperature 19 °F 19 °F -2 °F (1963)
Degree Days  
Heating Degree Days 32    
Moisture  
Dew Point 6 °F    
Average Humidity 37    
Maximum Humidity 78    
Minimum Humidity 11    
Precipitation  
Precipitation 0.00 in - - ()
Sea Level Pressure  
Sea Level Pressure 30.21 in    
Wind  
Wind Speed 15 mph (NNE)    
Max Wind Speed 28 mph    
Max Gust Speed 41 mph    
Visibility 10 miles    
Events      
Averages and records for this station are not official NWS values.
T = Trace of Precipitation, MM = Missing Value Source: NWS Daily Summary

Daily Weather History Graph

Daily Weather History Graph

Search for Another Location

Airport or City:

Trip Planner

Search our weather history database for the weather conditions in past years. The results will help you decide how hot, cold, wet, or windy it might be!

Date:

Astronomy

Jan. 14, 2014 Rise Set
Actual Time 7:09 AM MST 5:09 PM MST
Civil Twilight 6:42 AM MST 5:37 PM MST
Nautical Twilight 6:10 AM MST 6:09 PM MST
Astronomical Twilight 5:39 AM MST 6:39 PM MST
Moon 4:16 PM MST (1/14) 5:47 AM MST (1/14)
Length of Visible Light 10h 55m
Length of Day
9h 59m
Waxing Gibbous, 98% of the Moon is Illuminated
Jan 14
Waxing Gibbous
Jan 15
Full
Jan 23
Last Quarter
Jan 30
New
Feb 6
First Quarter

Hourly Weather History & Observations

Time (MST) Temp. Windchill Dew Point Humidity Pressure Visibility Wind Dir Wind Speed Gust Speed Precip Events Conditions
12:53 AM 28.0 °F 18.6 °F 8.1 °F 43% 29.98 in 10.0 mi South 10.4 mph - N/A   Clear
1:53 AM 27.0 °F 18.7 °F 7.0 °F 43% 29.99 in 10.0 mi NW 8.1 mph - N/A   Clear
2:53 AM 34.0 °F 22.1 °F 3.0 °F 27% 29.96 in 10.0 mi North 21.9 mph 27.6 mph N/A   Clear
3:53 AM 36.0 °F 23.9 °F 5.0 °F 27% 29.99 in 10.0 mi North 25.3 mph - N/A   Clear
4:53 AM 34.0 °F 22.4 °F 3.9 °F 28% 30.01 in 10.0 mi North 20.7 mph 31.1 mph N/A   Clear
5:53 AM 30.0 °F 19.5 °F 5.0 °F 35% 30.12 in 10.0 mi NNE 13.8 mph - N/A   Clear
6:53 AM 28.0 °F 18.1 °F 3.9 °F 36% 30.17 in 10.0 mi ENE 11.5 mph - N/A   Clear
7:53 AM 28.9 °F 19.8 °F 6.1 °F 38% 30.21 in 10.0 mi East 10.4 mph - N/A   Clear
8:53 AM 36.0 °F 30.3 °F 7.0 °F 30% 30.24 in 10.0 mi East 6.9 mph - N/A   Clear
9:53 AM 42.1 °F 39.2 °F 6.1 °F 23% 30.26 in 10.0 mi Variable 4.6 mph - N/A   Clear
10:53 AM 44.1 °F 40.1 °F 3.9 °F 19% 30.24 in 10.0 mi Variable 6.9 mph - N/A   Clear
11:53 AM 48.0 °F - -0.0 °F 14% 30.19 in 10.0 mi NW 25.3 mph 36.8 mph N/A   Clear
12:53 PM 48.0 °F - -0.9 °F 13% 30.17 in 10.0 mi NW 26.5 mph 32.2 mph N/A   Clear
1:53 PM 48.9 °F - -4.0 °F 11% 30.17 in 10.0 mi NNW 24.2 mph 36.8 mph N/A   Clear
2:53 PM 48.9 °F - -2.9 °F 12% 30.17 in 10.0 mi North 27.6 mph 41.4 mph N/A   Clear
3:53 PM 46.0 °F 37.4 °F -0.9 °F 14% 30.19 in 10.0 mi North 25.3 mph - N/A   Clear
4:53 PM 41.0 °F 32.5 °F 1.0 °F 19% 30.24 in 10.0 mi North 17.3 mph - N/A   Clear
5:53 PM 32.0 °F 22.5 °F 10.9 °F 42% 30.34 in 10.0 mi ESE 12.7 mph - N/A   Clear
6:53 PM 28.0 °F 18.1 °F 15.1 °F 58% 30.40 in 10.0 mi SSE 11.5 mph - N/A   Clear
7:53 PM 24.1 °F 17.0 °F 15.1 °F 69% 30.43 in 10.0 mi South 5.8 mph - N/A   Clear
8:53 PM 24.1 °F 11.5 °F 15.1 °F 69% 30.40 in 10.0 mi SSW 15.0 mph - N/A   Clear
9:53 PM 21.0 °F 8.6 °F 14.0 °F 74% 30.40 in 10.0 mi South 12.7 mph - N/A   Clear
10:53 PM 19.9 °F 6.7 °F 14.0 °F 78% 30.38 in 10.0 mi SSW 13.8 mph - N/A   Clear
11:53 PM 21.9 °F 7.8 °F 15.1 °F 75% 30.32 in 10.0 mi South 17.3 mph - N/A   Clear